Regional Weather Roundup
Issued by NWS

Home | Current Version | Previous Version | Graphics & Text | Print | Product List | Glossary On
Versions: 1 2 3 4 5 6 7 8 9 10 11 12 13 14 15 16 17 18 19 20 21 22 23 24 25 26 27 28 29 30 31 32 33 34 35 36 37 38 39 40 41 42 43 44 45 46 47 48 49 50
913
ASUS43 KMPX 251701
RWRMN
WEATHER ROUNDUP FOR MINNESOTA
NATIONAL WEATHER SERVICE TWIN CITIES/CHANHASSEN MN
1200 PM CDT MON SEP 25 2017


NOTE: "FAIR" INDICATES FEW OR NO CLOUDS BELOW 12,000 FEET WITH NO
SIGNIFICANT WEATHER AND/OR OBSTRUCTIONS TO VISIBILITY. N/A MEANS
CURRENT SKY AND/OR WEATHER CONDITIONS ARE NOT AVAILABLE.

MNZ060>063-068>070-251800-
   Twin Cities Metro

CITY           SKY/WX    TMP DP  RH WIND       PRES   REMARKS
TWIN CITIES    CLOUDY    61  59  93 N8        29.99F
ST PAUL        CLOUDY    62  59  90 N7        29.99F
CRYSTAL        CLOUDY    59  55  87 N9        29.98F
BLAINE         CLOUDY    61  61 100 N7        29.99F
LAKEVILLE      CLOUDY    61  61 100 N5        29.99R
EDEN PRAIRIE   CLOUDY    60  57  89 N9        29.98F
SOUTH ST PAUL  CLOUDY    61  59  92 N6        29.98F
LAKE ELMO      CLOUDY    61  59  94 N6        29.99F
$$
MNZ001>005-007-008-013>017-022>024-027-028-251800-
   Northwest Minnesota

CITY           SKY/WX    TMP DP  RH WIND       PRES   REMARKS
BEMIDJI        CLOUDY    49  48  95 N7        30.07R FOG
HALLOCK          N/A     52  46  82 N12       30.13S
ROSEAU         CLOUDY    50  45  81 N9        30.11S
WARROAD        CLOUDY    50  46  87 NW7       30.11R
CROOKSTON      CLOUDY    52  48  87 N12       30.12S
FOSSTON        CLOUDY    50  46  87 N10       30.10R
DETROIT LAKES  CLOUDY    52  46  82 N7        30.09R
MOORHEAD       CLOUDY    52  48  87 N9        30.11S
PARK RAPIDS    CLOUDY    53  47  79 N8        30.07R
MAHNOMEN       CLOUDY    50  46  87 N9        30.09S
$$
MNZ006-009>011-018-025>026-251800-
   North Central Minnesota

CITY           SKY/WX    TMP DP  RH WIND       PRES   REMARKS
BAUDETTE       CLOUDY    52  49  89 NW8       30.09R
FLAG ISLAND    CLOUDY    52  46  82 N13       30.09S
INTL FALLS     CLOUDY    54  49  83 N9        30.06R
WASKISH        CLOUDY    52  48  87 N5        30.07F FOG
BIG FORK       CLOUDY    54  50  87 N3        30.04F
LONGVILLE      CLOUDY    54  50  87 N3        30.05R
GRAND RAPIDS   CLOUDY    52  49  89 VRB5      30.06S
CRANE LAKE     DRIZZLE   52  52 100 N3        30.05S
ORR            CLOUDY    55  50  82 NW5       30.01F
WALKER         CLOUDY    51  47  86 N6        30.06R
$$
MNZ012-019>021-037-251800-
   Northeast Minnesota

CITY           SKY/WX    TMP DP  RH WIND       PRES   REMARKS
DULUTH         CLOUDY    55  52  89 N6        30.02S
ELY            LGT RAIN  54  52  94 NW3       30.02S
HIBBING        LGT RAIN  52  50  93 NW6       30.03S
EVELETH        LGT RAIN  53  52  97 CALM      30.04R
GRAND MARAIS     N/A     62  58  86 SW6       29.98R
$$
MNZ029>031-032-039>041-046>048-054>057-064-251800-
   West Central Minnesota

CITY           SKY/WX    TMP DP  RH WIND       PRES   REMARKS
FERGUS FALLS   CLOUDY    54  46  76 NE10      30.09R
WHEATON        CLOUDY    54  46  76 N12G17    30.09F
ALEXANDRIA     CLOUDY    54  49  83 N7        30.08R
ELBOW LAKE     CLOUDY    53  48  84 N7        30.07F
WADENA         CLOUDY    52  48  87 N6        30.07R
GLENWOOD       CLOUDY    54  48  82 N9        30.07R
APPLETON       CLOUDY    55  48  76 N9        30.06F
BENSON         CLOUDY    55  52  88 N7        30.06F
ORTONVILLE     CLOUDY    54  46  76 N10       30.07F
MADISON        CLOUDY    55  52  88 N8        30.08R
WILLMAR        CLOUDY    54  54 100 N10       30.06S
$$
MNZ033>034-036-042>043-049>051-058-059-251800-
   Central Minnesota

CITY           SKY/WX    TMP DP  RH WIND       PRES   REMARKS
ST CLOUD       CLOUDY    56  54  93 N7        30.02F
SAUK CENTRE    CLOUDY    53  49  89 N8        30.06R
PAYNESVILLE    CLOUDY    55  51  87 N6        30.06R
AITKIN         LGT RAIN  54  48  82 N7        30.03S
PINE RIVER     LGT RAIN  52  46  82 N7        30.09R
BRAINERD       CLOUDY    54  51  90 NE8       30.04F
STAPLES        DRIZZLE   54  48  82 N3        30.06R
LITTLE FALLS   CLOUDY    52  46  82 N5        30.05R
LITCHFIELD     CLOUDY    55  55 100 NW6       30.04R
BUFFALO        RAIN      56  53  91 N6        30.02S
MAPLE LAKE     RAIN      56  55  94 N3        30.04R
HUTCHINSON     DRIZZLE   55  55  97 N3        30.03F
$$
MNZ037-044-045-052-053-251800-
   East Central Minnesota

CITY           SKY/WX    TMP DP  RH WIND       PRES   REMARKS
PRINCETON      LGT RAIN  59  55  88 N3        30.02R
MORA           DRIZZLE   55  52  88 CALM      30.02S
RUSH CITY      CLOUDY    56  54  92 N6        30.01F
MOOSE LAKE     CLOUDY    55  50  82 NW5       30.01F
HINCKLEY       LGT RAIN  55  54  94 N7        30.01F
CLOQUET        CLOUDY    55  50  82 N7        30.03S
MCGREGOR       CLOUDY    54  50  87 N6        30.03F
$$
MNZ071>073-080-081-089-090-097-098-251800-
   Southwest Minnesota

CITY           SKY/WX    TMP DP  RH WIND       PRES   REMARKS
MONTEVIDEO     CLOUDY    55  52  88 NE8       30.06F
GRANITE FALLS  CLOUDY    56  52  88 N7        30.07F
CANBY          CLOUDY    54  50  86 NW7       30.09R
MARSHALL       CLOUDY    53  49  86 N14       30.06F
REDWOOD FALLS  CLOUDY    57  52  83 N8        30.04F
OLIVIA         CLOUDY    54  50  87 N6        30.04S
PIPESTONE      CLOUDY    52  50  93 NE14      30.05S
WORTHINGTON    CLOUDY    53  51  93 N12       30.04S
JACKSON        LGT RAIN  54  54 100 VRB7      30.03S
TRACY          CLOUDY    53  52  96 N10       30.05F
SLAYTON        CLOUDY    51  44  78 N12       30.05F HAZE
$$
MNZ065>067-074>077-082>085-091>093-251800-
   South Central Minnesota

CITY           SKY/WX    TMP DP  RH WIND       PRES   REMARKS
MANKATO        CLOUDY    58  56  93 N8        30.01R
NEW ULM        DRIZZLE   55  54  94 NW9       30.02S
ST JAMES       CLOUDY    55  55 100 NW10      30.02F FOG
FAIRMONT       CLOUDY    57  55  93 N8        30.01S
FARIBAULT      CLOUDY    63  61  94 N5        29.98S FOG
OWATONNA       CLOUDY    64  61  88 NW3       29.98S
WASECA         CLOUDY    63  59  88 NW5       30.00S
ALBERT LEA     CLOUDY    72  66  83 E7        29.97S
$$
MNZ078>079-086>088-094>096-251800-
   Southeast Minnesota

CITY           SKY/WX    TMP DP  RH WIND       PRES   REMARKS
ROCHESTER      PTSUNNY   74  67  78 E5        29.97S
RED WING       CLOUDY    68  63  83 N3        29.95F
STANTON        CLOUDY    63  60  91 N7        29.96F FOG
DODGE CENTER   CLOUDY    68  64  88 N5        29.97F
WINONA         SUNNY     79  64  61 E3        29.94F
AUSTIN         CLOUDY    70  66  88 NE3       29.96F
PRESTON        PTSUNNY   74  63  68 CALM      29.97F
$$
ABBREVIATIONS USED IN REMARKS
   TC - TEMPERATURES IN CELSIUS
  WCI - WIND CHILL INDEX
   HX - HEAT INDEX
  VSB - VISIBILITY
$$




USA.gov is the U.S. government's official web portal to all federal, state and local government web resources and services.